Location: Presov
(49.0000°N, 21.2500°E)
Time: 07:06:24
(UTC+02:00)

Transit 2A Rocket - Pass Details

Date: 20 April 2021
Orbit: 594 x 909 km, 66.7° (Epoch: 07 May)

Event Time Altitude Azimuth Distance (km) Brightness Sun altitude
Rises 21:25:38 0° 327° (NNW) 2,846 9.5 -16.5°
Reaches altitude 10° 21:29:45 10° 6° (N) 1,964 7.6 -17.0°
Maximum altitude 21:30:52 11° 21° (NNE) 1,920 7.3 -17.1°
Drops below altitude 10° 21:32:00 10° 36° (NE) 1,985 7.2 -17.2°
Enters shadow 21:34:58 - 66° (ENE) 2,579 7.5 -17.6°
Sets 21:36:15 0° 74° (ENE) 2,951 - -17.7°
